Ciudad Obregón International Airport

Jump to: basic info | weather | frequencies | runways | comments

Related pages: nearby airports | nearby navaids | notams | map

Basic information (top)

Codes: CEN MMCN
Location: lon 27.392599, lat -109.833000, elev 243 ft / 74 m msl
Status: medium_airport
Scheduled airline service: yes
Links: Wikipedia Mobile

Weather (top)

Current conditions (rec'd 2015/03/07 00:45Z):

MMCN 070045Z 27005KT 10SM OVC200 22/12 A2990 RMK 8/007 HZY

Airport forecast (rec'd 2015/03/03 18:21Z):

TAF COR MMCN 031815Z 0318/0418 16008KT 5SM -RA BKN030 OVC070 
      TEMPO 0318/0321 2SM RA 
     FM032100 18010KT P6SM -RA SCT030 OVC080 
     FM040300 18006KT P6SM SCT040 
      BECMG 0406/0407 24008KT 
     FM041600 27008KT P6SM BKN040

Frequencies (top)

Verify before use: may be inaccurate or out of date.

APP: 121.3 MHz (APP)
ATIS: 127.6 MHz (ATIS)
TWR: 118.3 MHz (OBREGON TWR)

Runways (top)

13/31: 7,546 x 148 ft (2,300 x 45 m) — paved — lighted

Latest comments (top)

No comments yet for Ciudad Obregón International Airport

More... (top)

See also NOTAMs and nearby airports and navaids, or visit the Ciudad Obregón International Airport page at the main OurAirports website..